Back to catalog

NIMBUS 2 DEB

AliveSSO
NORAD 40644·DEBRIS·🇺🇸 United States

Launched May 15, 1966 from Vandenberg Space Force Base

Loading…

Next Passes (next 24 hours)

TLE

FreshSource: Space-Track

Epoch: Sep 14, 2026, 13:55 UTC

1 40644U 66040BH  26257.58049053  .00001361  00000-0  23097-2 0  9994
2 40644 100.3439 128.5052 0057768 325.1474  34.5880 13.46703892556054

Track NIMBUS 2 DEB in real time with AllMySat

Download on the App Store